When you browse on this site, cookies collect data to enhance your experience and personalize the content and advertising you see.
Visit our Privacy Policy to learn more. By continuing to use the site, you agree to this use of cookies and data.
  • In Belgien
  • Länderverzeichnis
  • Für 7 Tage
  • Wassertemperatur
  • Satellitenkarten
  • Wetterkarte
  • Widgets
  • user-avatar
    Anmelden

    Stündliche Wetter Korçe

    Heute, 21 Januar, Montag

    Zeit Temperatur Niederschläge Wind Luftdruck Luftfeuchtigkeit
    00:00 0°C° 0 mm 1 m/S 662 mmHg 86%
    01:00 0°C° 0 mm 1 m/S 662 mmHg 85%
    02:00 0°C° 0 mm 1 m/S 662 mmHg 84%
    03:00 0°C° 0 mm 1 m/S 662 mmHg 83%
    04:00 0°C° 0 mm 1 m/S 662 mmHg 82%
    05:00 0°C° 0 mm 1 m/S 662 mmHg 81%
    06:00 0°C° 0 mm 1 m/S 662 mmHg 80%
    07:00 -2°C° 0 mm 2 m/S 662 mmHg 78%
    08:00 +1°C° 0 mm 2 m/S 663 mmHg 76%
    09:00 +2°C° 0 mm 2 m/S 664 mmHg 75%
    10:00 +5°C° 0 mm 1 m/S 664 mmHg 73%
    11:00 +4°C° 0 mm 2 m/S 664 mmHg 72%
    12:00 +5°C° 0 mm 2 m/S 664 mmHg 72%
    13:00 +6°C° 0 mm 2 m/S 664 mmHg 71%
    14:00 +5°C° 0 mm 2 m/S 664 mmHg 74%
    15:00 +4°C° 0 mm 2 m/S 664 mmHg 77%
    16:00 +5°C° 0 mm 1 m/S 664 mmHg 80%
    17:00 +3°C° 0 mm 2 m/S 663 mmHg 83%
    18:00 +2°C° 0 mm 2 m/S 663 mmHg 86%
    19:00 +1°C° 0 mm 2 m/S 663 mmHg 89%
    20:00 +1°C° 0 mm 2 m/S 663 mmHg 89%
    21:00 +1°C° 0 mm 2 m/S 663 mmHg 89%
    22:00 +1°C° 0 mm 2 m/S 663 mmHg 89%
    23:00 -1°C° 0 mm 2 m/S 663 mmHg 89%

    Morgen, 22 Januar, Dienstag

    Zeit Temperatur Niederschläge Wind Luftdruck Luftfeuchtigkeit
    00:00 -1°C° 0 mm 2 m/S 663 mmHg 89%
    01:00 -1°C° 0 mm 2 m/S 663 mmHg 89%
    02:00 -1°C° 0 mm 2 m/S 662 mmHg 89%
    03:00 -1°C° 0 mm 2 m/S 662 mmHg 89%
    04:00 -1°C° 0 mm 2 m/S 662 mmHg 88%
    05:00 -1°C° 0.2 mm 3 m/S 662 mmHg 88%
    06:00 0°C° 0.2 mm 3 m/S 661 mmHg 88%
    07:00 0°C° 0.2 mm 3 m/S 661 mmHg 88%
    08:00 0°C° 0.3 mm 3 m/S 661 mmHg 88%
    09:00 +1°C° 0.3 mm 3 m/S 661 mmHg 88%
    10:00 +1°C° 0.3 mm 3 m/S 661 mmHg 88%
    11:00 +1°C° 0.9 mm 3 m/S 661 mmHg 89%
    12:00 +1°C° 0.9 mm 3 m/S 660 mmHg 91%
    13:00 +1°C° 0.9 mm 3 m/S 659 mmHg 92%
    14:00 +1°C° 1 mm 3 m/S 659 mmHg 92%
    15:00 +1°C° 1 mm 3 m/S 659 mmHg 92%
    16:00 +1°C° 1 mm 3 m/S 658 mmHg 93%
    17:00 +1°C° 1.4 mm 3 m/S 658 mmHg 93%
    18:00 +1°C° 1.4 mm 3 m/S 658 mmHg 93%
    19:00 +2°C° 1.4 mm 2 m/S 657 mmHg 94%
    20:00 +1°C° 0.9 mm 3 m/S 657 mmHg 95%
    21:00 +1°C° 0.9 mm 3 m/S 657 mmHg 96%
    22:00 +1°C° 0.9 mm 3 m/S 657 mmHg 97%
    23:00 +1°C° 0.2 mm 3 m/S 657 mmHg 98%

    übermorgen, 23 Januar, Mittwoch

    Zeit Temperatur Niederschläge Wind Luftdruck Luftfeuchtigkeit
    00:00 0°C° 0.2 mm 3 m/S 657 mmHg 98%
    01:00 0°C° 0.2 mm 3 m/S 657 mmHg 98%
    02:00 0°C° 0.1 mm 3 m/S 657 mmHg 98%
    03:00 -1°C° 0.1 mm 3 m/S 656 mmHg 97%
    04:00 -1°C° 0.1 mm 3 m/S 656 mmHg 97%
    05:00 -1°C° 0.1 mm 3 m/S 656 mmHg 97%
    06:00 -1°C° 0.1 mm 3 m/S 656 mmHg 96%
    07:00 -1°C° 0.1 mm 3 m/S 656 mmHg 96%
    08:00 0°C° 0.1 mm 3 m/S 656 mmHg 94%
    09:00 +1°C° 0.1 mm 3 m/S 656 mmHg 93%
    10:00 +1°C° 0.1 mm 3 m/S 657 mmHg 91%
    11:00 +2°C° 0.1 mm 3 m/S 656 mmHg 88%
    12:00 +2°C° 0.1 mm 3 m/S 656 mmHg 86%
    13:00 +3°C° 0.1 mm 3 m/S 656 mmHg 83%
    14:00 +3°C° 0 mm 2 m/S 655 mmHg 84%
    15:00 +3°C° 0 mm 2 m/S 655 mmHg 85%
    16:00 +3°C° 0 mm 1 m/S 654 mmHg 86%
    17:00 +3°C° 0 mm 1 m/S 654 mmHg 87%
    18:00 +3°C° 0 mm 1 m/S 654 mmHg 88%
    19:00 +2°C° 0 mm 1 m/S 654 mmHg 88%
    20:00 +2°C° 0.1 mm 1 m/S 654 mmHg 89%
    21:00 +2°C° 0.1 mm 1 m/S 653 mmHg 89%
    22:00 +2°C° 0.1 mm 1 m/S 653 mmHg 89%
    23:00 +2°C° 0.7 mm 1 m/S 653 mmHg 89%

    24 Januar, Donnerstag

    Zeit Temperatur Niederschläge Wind Luftdruck Luftfeuchtigkeit
    00:00 +2°C° 0.7 mm 1 m/S 652 mmHg 90%
    01:00 +2°C° 0.7 mm 1 m/S 652 mmHg 90%
    02:00 +1°C° 0.6 mm 2 m/S 651 mmHg 91%
    03:00 +1°C° 0.6 mm 2 m/S 651 mmHg 91%
    04:00 +1°C° 0.6 mm 2 m/S 650 mmHg 92%
    05:00 +1°C° 0.3 mm 2 m/S 650 mmHg 91%
    06:00 +1°C° 0.3 mm 2 m/S 650 mmHg 91%
    07:00 +1°C° 0.3 mm 2 m/S 650 mmHg 91%
    08:00 +1°C° 0.1 mm 2 m/S 650 mmHg 89%
    09:00 +2°C° 0.1 mm 2 m/S 650 mmHg 88%
    10:00 +3°C° 0.1 mm 2 m/S 650 mmHg 86%
    11:00 +3°C° 0.1 mm 2 m/S 650 mmHg 87%
    12:00 +5°C° 0.1 mm 1 m/S 650 mmHg 87%
    13:00 +5°C° 0.1 mm 1 m/S 650 mmHg 87%
    14:00 +4°C° 1 mm 1 m/S 650 mmHg 90%
    15:00 +4°C° 1 mm 1 m/S 650 mmHg 93%
    16:00 +2°C° 1 mm 0 m/S 651 mmHg 95%
    17:00 +3°C° 0.4 mm 1 m/S 651 mmHg 96%
    18:00 +3°C° 0.4 mm 1 m/S 651 mmHg 96%
    19:00 +2°C° 0.4 mm 1 m/S 652 mmHg 97%
    20:00 +2°C° 0 mm 1 m/S 652 mmHg 96%
    21:00 +1°C° 0 mm 2 m/S 652 mmHg 96%
    22:00 -1°C° 0 mm 2 m/S 652 mmHg 95%
    23:00 -1°C° 0 mm 2 m/S 651 mmHg 94%

    25 Januar, Freitag

    Zeit Temperatur Niederschläge Wind Luftdruck Luftfeuchtigkeit
    00:00 -1°C° 0 mm 2 m/S 651 mmHg 92%
    01:00 -2°C° 0 mm 2 m/S 651 mmHg 91%
    02:00 -1°C° 0.5 mm 2 m/S 651 mmHg 91%
    03:00 -1°C° 0.5 mm 2 m/S 651 mmHg 92%
    04:00 -1°C° 0.5 mm 2 m/S 651 mmHg 92%
    05:00 -1°C° 0.5 mm 2 m/S 651 mmHg 92%
    06:00 -1°C° 0.5 mm 2 m/S 652 mmHg 92%
    07:00 -1°C° 0.5 mm 2 m/S 652 mmHg 91%
    08:00 +1°C° 0.2 mm 2 m/S 652 mmHg 91%
    09:00 +1°C° 0.2 mm 2 m/S 652 mmHg 90%
    10:00 +2°C° 0.2 mm 2 m/S 652 mmHg 90%
    11:00 +2°C° 0.6 mm 2 m/S 652 mmHg 90%
    12:00 +2°C° 0.6 mm 2 m/S 651 mmHg 90%
    13:00 +2°C° 0.6 mm 2 m/S 651 mmHg 90%
    14:00 +2°C° 0.9 mm 2 m/S 651 mmHg 91%
    15:00 +1°C° 0.9 mm 2 m/S 650 mmHg 91%
    16:00 +1°C° 0.9 mm 2 m/S 650 mmHg 92%
    17:00 +1°C° 0.5 mm 2 m/S 651 mmHg 92%
    18:00 +1°C° 0.5 mm 1 m/S 651 mmHg 92%
    19:00 +1°C° 0.5 mm 1 m/S 651 mmHg 92%
    20:00 +1°C° 0.3 mm 1 m/S 651 mmHg 91%
    21:00 +1°C° 0.3 mm 1 m/S 651 mmHg 91%
    22:00 -2°C° 0.3 mm 2 m/S 651 mmHg 91%
    23:00 -2°C° 0.2 mm 2 m/S 652 mmHg 91%

    26 Januar, Samstag

    Zeit Temperatur Niederschläge Wind Luftdruck Luftfeuchtigkeit
    00:00 -2°C° 0.2 mm 2 m/S 652 mmHg 91%
    01:00 -2°C° 0.2 mm 2 m/S 652 mmHg 91%
    02:00 -3°C° 0 mm 2 m/S 652 mmHg 91%
    03:00 -3°C° 0 mm 2 m/S 652 mmHg 90%
    04:00 -3°C° 0 mm 2 m/S 652 mmHg 90%
    05:00 -4°C° 0 mm 2 m/S 652 mmHg 90%
    06:00 -5°C° 0 mm 2 m/S 652 mmHg 90%
    07:00 -5°C° 0 mm 2 m/S 653 mmHg 89%
    08:00 -4°C° 0 mm 2 m/S 653 mmHg 88%
    09:00 -3°C° 0 mm 2 m/S 654 mmHg 86%
    10:00 -1°C° 0 mm 2 m/S 655 mmHg 84%
    11:00 -1°C° 0 mm 2 m/S 655 mmHg 84%
    12:00 +1°C° 0 mm 2 m/S 656 mmHg 84%
    13:00 +2°C° 0 mm 2 m/S 656 mmHg 84%
    14:00 +1°C° 0 mm 2 m/S 656 mmHg 85%
    15:00 +1°C° 0 mm 2 m/S 656 mmHg 85%
    16:00 +1°C° 0 mm 2 m/S 657 mmHg 86%
    17:00 -2°C° 0 mm 2 m/S 657 mmHg 87%
    18:00 -3°C° 0 mm 2 m/S 657 mmHg 87%
    19:00 -4°C° 0 mm 2 m/S 657 mmHg 88%
    20:00 -5°C° 0 mm 2 m/S 657 mmHg 88%
    21:00 -5°C° 0 mm 2 m/S 657 mmHg 87%
    22:00 -5°C° 0 mm 2 m/S 657 mmHg 86%
    23:00 -5°C° 0 mm 2 m/S 657 mmHg 85%
    Mehr zeigen